Weather History for KOMK - October, 2012

Change the Weather History Date:

Thursday, October 25, 2012

  Actual Average Record
Temperature  
Mean Temperature 43 °F 45 °F  
Max Temperature 51 °F 56 °F 71 °F (1944)
Min Temperature 35 °F 33 °F 14 °F (2002)
Degree Days  
Heating Degree Days 22 20  
Month to date heating degree days 356 368  
Since 1 July heating degree days 422 529  
Cooling Degree Days 0 0  
Month to date cooling degree days 0 0  
Year to date cooling degree days 629 664  
Moisture  
Dew Point 35 °F    
Average Humidity 71    
Maximum Humidity 92    
Minimum Humidity 50    
Precipitation  
Precipitation 0.02 in 0.04 in 0.48 in (1975)
Month to date precipitation 0.45 0.80  
Year to date precipitation 11.22 10.40  
Sea Level Pressure  
Sea Level Pressure 30.34 in    
Wind  
Wind Speed 5 mph (NNW)    
Max Wind Speed 13 mph    
Max Gust Speed 16 mph    
Visibility 10 miles    
Events Rain    
T = Trace of Precipitation, MM = Missing Value Source: NWS Daily Summary

Daily Weather History Graph

Daily Weather History Graph

Search for Another Location

Airport or City:

Trip Planner

Search our weather history database for the weather conditions in past years. The results will help you decide how hot, cold, wet, or windy it might be!

Date:

Astronomy

Oct. 25, 2012 Rise Set
Actual Time 7:34 AM PDT 5:49 PM PDT
Civil Twilight 7:01 AM PDT 6:21 PM PDT
Nautical Twilight 6:25 AM PDT 6:58 PM PDT
Astronomical Twilight 5:48 AM PDT 7:34 PM PDT
Moon 3:52 PM PDT (10/25) 3:18 AM PDT (10/25)
Length of Visible Light 11h 19m
Length of Day
10h 15m
Waxing Gibbous, 85% of the Moon is Illuminated
Oct 25
Waxing Gibbous
Oct 29
Full
Nov 6
Last Quarter
Nov 13
New
Nov 20
First Quarter

Hourly Weather History & Observations

Time (PDT) Temp. Windchill Dew Point Humidity Pressure Visibility Wind Dir Wind Speed Gust Speed Precip Events Conditions
1:08 AM 37.4 °F 31.4 °F 35.6 °F 93% 30.17 in 10.0 mi NNW 8.1 mph - 0.00 in   Overcast
1:46 AM 37.4 °F 31.4 °F 35.6 °F 93% 30.18 in 10.0 mi NNW 8.1 mph - 0.00 in   Overcast
1:53 AM 37.9 °F 32.7 °F 35.1 °F 89% 30.22 in 10.0 mi NW 6.9 mph - 0.00 in Rain Light Rain
2:37 AM 37.4 °F 30.8 °F 35.6 °F 93% 30.19 in 10.0 mi NNW 9.2 mph - 0.00 in   Overcast
2:53 AM 37.9 °F 30.9 °F 35.1 °F 89% 30.23 in 10.0 mi NNW 10.4 mph - 0.00 in   Overcast
3:53 AM 37.9 °F 32.7 °F 35.1 °F 89% 30.24 in 10.0 mi NW 6.9 mph - 0.02 in Rain Light Rain
4:53 AM 39.0 °F 34.0 °F 36.0 °F 89% 30.26 in 10.0 mi NW 6.9 mph - 0.00 in   Overcast
5:53 AM 39.0 °F 34.0 °F 36.0 °F 89% 30.28 in 10.0 mi NNW 6.9 mph - N/A   Overcast
7:53 AM 37.9 °F 33.5 °F 35.1 °F 89% 30.33 in 10.0 mi North 5.8 mph - N/A   Overcast
8:53 AM 39.9 °F 35.8 °F 36.0 °F 86% 30.35 in 10.0 mi NW 5.8 mph - N/A   Scattered Clouds
9:53 AM 42.1 °F 37.1 °F 37.0 °F 82% 30.37 in 10.0 mi NNW 8.1 mph - N/A   Partly Cloudy
10:11 AM 42.8 °F 38.6 °F 37.4 °F 81% 30.34 in 10.0 mi North 6.9 mph - N/A   Mostly Cloudy
10:19 AM 42.8 °F 38.0 °F 37.4 °F 81% 30.34 in 10.0 mi North 8.1 mph - N/A   Scattered Clouds
10:53 AM 45.0 °F 40.1 °F 37.0 °F 74% 30.38 in 10.0 mi North 9.2 mph - N/A   Clear
11:53 AM 46.9 °F - 36.0 °F 66% 30.40 in 10.0 mi NNE 9.2 mph - N/A   Scattered Clouds
12:53 PM 46.9 °F - 36.0 °F 66% 30.40 in 10.0 mi NW 9.2 mph - N/A   Scattered Clouds
1:04 PM 46.4 °F 42.9 °F 35.6 °F 66% 30.37 in 10.0 mi NNE 6.9 mph - N/A   Mostly Cloudy
1:15 PM 48.2 °F - 35.6 °F 62% 30.38 in 10.0 mi North 6.9 mph - N/A   Partly Cloudy
1:53 PM 50.0 °F - 35.1 °F 57% 30.40 in 10.0 mi NNE 4.6 mph - N/A   Clear
2:53 PM 51.1 °F - 34.0 °F 52% 30.40 in 10.0 mi North 8.1 mph - N/A   Overcast
3:53 PM 48.9 °F - 33.1 °F 54% 30.41 in 10.0 mi Variable 3.5 mph - N/A   Mostly Cloudy
4:53 PM 48.0 °F - 33.1 °F 56% 30.41 in 10.0 mi Calm Calm - N/A   Overcast
6:53 PM 37.0 °F - 33.1 °F 86% 30.42 in 10.0 mi Calm Calm - N/A   Clear
7:53 PM 39.9 °F 36.7 °F 34.0 °F 79% 30.43 in 10.0 mi West 4.6 mph - N/A   Clear
9:53 PM 39.9 °F - 35.1 °F 83% 30.43 in 10.0 mi Calm Calm - N/A   Mostly Cloudy
10:53 PM 39.9 °F - 36.0 °F 86% 30.42 in 10.0 mi Calm Calm - 0.00 in   Overcast
11:53 PM 41.0 °F - 36.0 °F 82% 30.41 in 10.0 mi Calm Calm - N/A   Overcast